Theta_e
309 309 309 309 310 310 311 312 313 314 314 314 313 311 311 309 310 317 320 324 327 324 325 327 330 341 347 345 346 344 342 339 335 335 337 339 339 337 334 334 333 333 333 331 331 333 335 335 334 333 332 334 336 338 338 338 338 340 340 340 340 340 340 341 341 341 340 340 340 339 338 337 336 335 335 335 334 335 334 335 335 335 335 335 335 336
309 309 309 309 310 311 310 312 313 313 313 313 312 311 311 310 314 320 322 325 330 326 327 331 333 340 345 343 343 343 342 340 337 337 339 339 338 334 332 333 333 332 332 332 331 331 331 332 332 332 333 334 336 338 338 338 339 340 340 340 341 340 340 341 340 340 339 339 338 337 336 335 335 335 335 334 334 334 334 334 334 334 334 334 334 335
309 309 310 310 311 310 310 311 312 314 313 313 312 311 309 312 318 323 324 325 327 327 329 335 339 340 342 340 340 342 342 341 339 339 339 338 337 334 333 332 333 333 333 333 332 332 332 332 332 333 333 333 335 337 337 338 339 339 339 339 340 340 340 340 339 338 338 337 336 336 335 335 334 334 333 333 333 332 332 332 332 332 332 332 332 333
308 309 310 310 310 310 310 311 311 312 312 313 312 309 309 314 317 318 324 327 326 327 330 337 341 340 340 338 338 339 340 340 339 339 339 337 337 336 335 333 334 335 334 332 331 332 332 331 332 333 333 333 335 336 336 336 337 338 338 338 338 339 338 338 337 337 336 336 335 335 334 333 333 332 331 331 331 331 330 330 329 329 329 329 329 330
308 310 310 310 309 309 309 310 310 311 312 313 313 311 311 314 314 317 325 327 326 329 332 334 336 339 341 341 340 337 338 339 338 339 338 337 337 336 335 334 334 333 333 332 331 331 332 331 331 332 332 332 333 334 335 335 335 335 336 336 336 336 336 336 336 336 335 335 334 333 333 332 332 331 331 330 330 329 329 328 327 326 327 327 327 327
309 309 310 309 308 309 309 309 310 310 311 312 313 313 313 315 317 323 326 323 323 327 332 328 324 330 339 341 340 338 339 340 338 338 337 336 337 336 335 334 333 333 333 333 332 331 332 332 331 331 331 331 331 331 332 332 333 333 334 334 334 334 334 334 334 335 335 334 334 334 333 333 332 331 330 329 328 328 327 325 324 325 325 325 325 325
309 309 308 309 309 309 309 309 310 311 311 310 312 313 316 319 321 323 323 319 318 323 331 327 319 323 332 337 340 339 339 340 338 338 337 336 337 335 334 335 334 334 334 334 333 332 332 331 331 330 329 329 329 328 328 329 329 330 330 331 331 331 331 332 332 333 333 333 333 332 332 332 331 330 328 327 326 325 324 323 322 322 322 321 322 322
310 308 308 308 308 308 308 309 310 311 310 311 312 313 317 322 321 321 320 316 316 322 330 330 321 322 326 333 339 339 339 340 339 338 337 336 336 334 334 335 334 334 333 333 332 332 331 331 330 329 327 326 327 327 327 327 327 327 327 328 328 329 329 329 329 330 331 331 330 330 329 328 328 327 325 324 323 323 322 321 320 320 319 319 318 318
310 308 308 308 308 308 308 309 310 311 311 312 313 312 315 321 321 320 318 315 317 324 326 325 321 319 321 330 339 339 339 341 340 339 337 336 336 335 334 335 334 333 332 331 330 330 329 328 328 328 326 325 325 325 325 326 326 326 325 325 325 326 326 326 326 327 328 328 328 328 327 326 325 324 323 322 322 321 321 320 319 319 319 318 317 316
310 309 309 308 308 309 309 310 310 310 312 313 313 313 315 320 321 320 318 316 318 321 320 320 319 315 318 329 336 337 339 340 339 337 336 336 335 335 334 333 332 332 331 330 329 329 328 326 326 325 325 324 323 323 324 323 323 323 323 323 323 323 323 323 323 324 324 325 325 325 325 324 323 322 321 321 321 320 320 319 318 318 317 316 316 315
311 309 309 309 309 309 310 310 310 310 312 313 314 314 316 317 319 319 318 318 318 317 315 317 320 314 316 327 333 334 337 337 337 337 335 335 334 334 333 332 331 331 329 328 328 328 328 326 326 325 325 324 323 322 322 322 322 322 322 323 323 322 322 322 322 322 322 321 321 321 321 321 320 320 320 319 319 318 318 317 317 316 315 314 314 313
311 310 309 309 309 310 310 310 310 310 311 313 314 313 313 314 316 316 316 318 317 314 312 316 321 315 313 322 329 331 334 334 335 336 335 335 334 333 332 332 331 330 329 327 327 327 327 326 326 325 324 324 323 323 323 323 323 323 323 322 322 321 320 320 320 320 320 319 319 318 318 317 317 317 317 317 316 316 316 316 315 314 313 312 312 311
311 310 310 310 310 310 310 309 309 310 311 312 313 312 312 312 313 313 314 316 314 312 314 316 319 315 313 320 329 331 332 333 334 334 334 334 334 333 332 331 331 330 329 328 327 327 327 327 326 325 324 324 323 323 323 323 323 322 322 321 321 320 319 319 318 318 317 317 316 316 316 315 315 315 315 314 314 314 314 313 313 313 312 311 311 310
311 311 311 310 310 310 310 309 307 308 310 311 311 310 310 311 313 315 314 314 312 313 316 317 318 316 314 321 331 330 330 333 332 332 333 334 334 333 332 330 330 329 328 328 327 326 327 327 326 325 324 324 323 323 323 322 322 321 320 320 319 319 318 317 317 316 315 315 315 314 314 313 313 313 312 312 312 312 312 311 311 311 310 310 309 308
312 313 311 310 311 310 310 309 309 309 309 310 312 312 310 310 312 313 312 311 312 314 317 319 320 316 315 324 333 332 331 332 331 332 334 333 333 332 330 329 329 327 326 327 327 326 327 326 325 324 324 323 323 322 322 321 321 320 319 319 318 317 317 316 315 315 314 313 313 312 312 312 311 311 311 310 310 310 310 310 310 309 309 308 308 307
311 312 311 311 311 310 310 310 310 310 309 310 312 311 310 311 311 311 314 314 313 316 319 320 320 319 322 329 332 331 332 332 331 333 334 333 333 332 330 329 328 327 326 327 327 326 326 326 324 323 323 323 322 322 321 321 320 319 319 318 317 317 316 315 314 314 313 312 312 311 311 310 310 310 310 309 309 309 309 308 308 308 308 307 307 306
311 311 311 311 311 311 310 310 311 310 310 310 310 309 312 314 313 311 313 316 315 315 318 318 319 322 325 328 330 330 332 332 331 333 333 332 332 332 330 329 329 328 328 327 326 326 326 325 323 323 323 322 322 321 320 320 319 319 318 317 317 316 315 314 313 313 312 311 311 310 310 309 309 309 309 308 308 308 307 307 307 307 307 306 306 305
311 311 311 311 311 311 310 311 311 311 311 310 309 310 313 314 314 312 311 313 313 313 317 318 317 319 317 322 331 332 331 333 331 332 334 332 331 331 331 330 329 329 327 326 325 326 326 324 323 323 322 321 321 320 319 319 319 318 317 317 316 315 314 313 312 312 311 310 310 309 309 308 308 308 307 307 307 307 307 307 306 306 306 306 305 305
313 312 311 311 310 311 311 311 310 310 311 311 310 312 313 311 312 311 311 313 312 312 317 318 317 317 314 320 331 333 332 334 332 331 334 332 331 332 331 330 329 328 327 326 325 324 324 324 323 322 321 320 320 319 318 318 318 317 316 316 315 314 313 312 312 311 310 310 309 309 309 308 307 307 307 307 306 306 306 306 306 305 305 305 305 304
313 313 311 311 311 311 311 310 309 309 310 311 311 312 312 311 311 311 311 313 312 311 315 319 320 317 316 321 330 332 333 334 332 332 333 332 331 331 331 329 328 327 326 325 324 324 324 323 321 321 320 319 319 318 317 317 317 316 315 315 314 313 312 311 311 310 310 309 309 308 308 307 307 306 306 306 306 306 305 305 305 305 305 304 304 304
313 314 312 311 311 311 310 310 310 310 309 309 310 310 310 312 312 313 312 310 311 311 312 319 322 318 319 327 330 331 333 333 333 333 332 332 331 330 330 328 327 326 325 324 323 323 323 321 320 320 319 319 318 317 317 316 316 315 315 314 313 312 311 311 310 310 309 309 308 308 307 307 306 306 306 306 305 305 305 305 305 305 304 304 303 303
312 313 313 311 311 310 310 311 311 312 311 309 310 310 310 311 310 312 313 310 310 310 310 315 316 317 326 334 330 330 333 332 333 332 331 332 331 330 329 327 326 325 324 323 322 322 322 321 320 319 319 318 317 317 316 315 315 315 314 313 312 311 311 310 309 309 309 308 307 307 306 306 306 306 306 305 305 305 305 304 304 304 303 303 302 302
313 313 312 312 312 311 311 312 311 312 312 311 311 311 311 312 310 310 311 312 310 310 312 313 312 318 330 331 329 332 333 331 332 332 331 331 330 329 328 326 325 324 323 322 322 322 321 320 319 319 318 317 317 316 315 315 314 314 313 312 311 310 309 309 309 308 308 307 306 306 306 305 305 305 305 305 305 304 304 304 303 303 303 302 302 302
314 313 313 311 311 311 312 312 311 312 312 312 311 311 312 312 312 311 311 313 312 310 313 313 311 320 330 328 328 332 333 331 331 330 330 330 329 328 326 324 323 322 321 320 320 321 320 319 318 318 318 317 316 315 314 314 314 313 312 311 310 309 308 308 308 307 307 306 306 306 306 305 305 305 305 304 304 304 303 303 303 302 302 302 302 302
312 312 312 312 312 312 313 312 311 311 311 312 312 312 313 312 312 314 313 314 313 310 312 312 309 320 330 328 328 331 331 331 330 330 330 329 328 327 325 323 321 321 320 319 318 319 319 318 318 317 317 316 315 314 314 313 313 312 311 310 309 309 308 307 307 306 306 306 305 305 305 305 304 304 304 304 303 303 303 303 302 302 302 302 301 301
312 313 312 312 313 313 313 312 312 311 310 312 312 312 312 312 312 314 313 311 310 310 311 310 310 323 331 328 328 330 330 330 330 329 329 327 326 324 323 322 320 320 319 318 317 318 318 318 318 317 317 316 315 314 313 312 312 311 310 310 309 308 307 307 306 306 306 305 305 305 305 304 304 304 303 303 303 303 303 302 302 302 302 301 301 301
312 315 314 312 312 311 312 312 313 313 311 311 312 312 312 312 313 313 311 309 309 311 312 311 312 324 331 329 329 330 330 330 330 328 327 326 324 322 321 320 318 318 317 316 317 317 317 318 318 317 316 315 314 313 312 312 311 310 309 309 308 308 307 306 306 306 305 305 305 305 304 304 303 303 303 303 302 302 302 302 302 302 301 301 301 301
312 313 314 315 315 313 313 314 314 313 312 311 311 312 312 313 313 314 311 310 312 312 312 313 315 319 326 330 330 330 330 329 329 328 326 325 323 321 320 318 317 317 316 316 316 316 316 317 317 317 316 315 314 312 312 311 310 309 309 308 307 307 306 306 306 305 305 304 304 304 304 303 303 302 302 301 301 301 301 301 301 301 301 301 300 300
312 311 314 316 315 314 315 316 315 314 313 312 312 312 313 313 313 314 313 313 315 313 311 316 318 315 321 330 330 329 330 329 328 327 326 324 321 320 319 318 317 316 315 315 316 316 316 316 317 317 316 314 313 312 311 311 310 309 308 307 307 306 306 306 306 305 304 304 303 303 302 302 301 301 300 300 300 300 301 300 300 300 300 300 300 300
312 312 314 314 313 315 316 316 315 315 314 313 312 312 313 313 313 314 315 314 316 316 315 318 319 317 321 330 330 329 329 328 327 326 325 324 321 320 319 318 317 316 315 316 316 316 316 317 317 317 315 314 313 312 311 310 309 308 307 307 306 305 306 306 305 305 304 303 302 301 301 300 300 300 300 300 300 300 300 300 300 300 300 300 300 300
313 313 314 313 312 315 317 317 316 315 315 315 314 313 314 314 314 315 315 316 317 318 318 319 318 319 326 331 330 329 328 326 325 325 325 324 322 321 320 319 318 316 315 315 316 316 316 317 318 316 315 314 313 312 311 310 309 308 307 306 306 305 305 305 305 305 304 303 301 300 300 299 299 299 299 299 299 299 299 299 299 299 299 300 300 300
313 313 314 313 311 314 317 317 317 317 316 315 316 317 316 316 315 315 317 319 319 318 319 318 315 317 326 330 329 328 326 325 324 324 325 323 322 322 320 318 317 316 315 315 316 315 315 316 317 316 314 314 312 312 311 310 309 308 307 306 305 305 305 305 305 304 303 301 300 299 299 299 299 299 299 299 299 299 299 299 299 299 299 300 300 300
311 312 313 312 311 313 317 318 318 318 316 315 318 322 320 317 317 319 321 323 321 318 318 318 314 318 327 329 328 327 326 325 324 324 323 322 322 321 320 317 316 315 314 315 315 315 315 316 316 315 314 313 312 311 310 309 308 307 306 306 305 305 305 304 304 303 302 300 299 299 298 298 298 299 299 299 299 299 299 299 299 299 299 300 300 300
311 311 312 312 311 313 317 318 317 316 315 317 322 324 325 322 320 320 321 322 320 319 322 323 321 325 329 328 328 328 326 325 324 323 322 321 321 321 319 317 316 315 314 314 314 315 315 315 315 314 314 313 312 311 310 308 308 306 305 305 304 304 304 304 303 302 301 299 299 298 298 298 298 298 298 299 299 299 299 299 299 299 299 299 300 300
312 311 313 313 310 313 317 317 315 315 319 323 322 321 322 324 323 322 324 323 321 322 325 326 327 330 329 327 327 327 326 325 323 322 321 321 321 320 319 317 316 315 314 314 314 315 315 315 314 314 313 312 311 310 309 308 306 305 304 304 303 303 304 303 302 301 299 299 298 298 298 298 298 298 298 298 299 299 299 299 299 299 299 299 299 299
312 312 313 312 312 314 316 314 314 317 322 325 323 320 319 321 323 322 322 323 322 323 323 323 325 328 328 327 327 326 325 325 323 322 321 320 320 319 318 317 316 315 314 314 314 315 315 314 314 313 311 311 310 309 308 306 305 304 303 303 303 303 303 302 300 299 299 298 298 298 298 298 298 298 298 298 298 298 299 299 299 299 299 299 299 298
312 312 312 313 314 315 314 313 314 318 321 326 327 324 321 323 323 320 318 319 323 323 321 322 325 327 328 327 326 325 324 324 323 322 321 319 319 319 318 317 316 315 315 315 314 314 314 314 313 312 311 310 309 308 306 305 304 303 303 302 302 302 301 300 299 299 298 298 298 297 298 298 298 298 298 298 298 298 298 299 299 299 299 298 298 298
313 313 312 313 314 314 313 313 316 316 316 320 326 327 325 325 326 323 319 320 325 323 320 322 326 327 327 326 325 324 323 324 325 323 321 319 319 319 318 317 316 316 316 315 314 314 313 313 312 311 310 309 308 306 305 304 303 302 302 302 301 301 300 299 299 298 298 298 298 298 298 298 298 298 298 298 298 298 298 298 298 298 298 298 298 298
316 315 313 312 314 314 313 313 315 315 314 318 327 328 324 322 325 324 317 318 325 325 321 322 326 327 326 325 324 323 323 324 325 324 321 319 318 318 318 317 316 316 315 314 313 313 312 312 311 310 309 308 307 305 304 303 302 301 301 300 300 299 299 299 298 298 298 298 298 298 298 298 298 297 298 298 298 298 298 298 298 298 298 298 298 297
314 314 314 313 313 314 314 312 313 313 317 324 328 325 321 321 325 324 317 317 325 326 321 322 326 326 325 325 323 323 323 324 325 324 321 318 318 319 318 316 315 315 314 313 312 312 311 311 310 309 308 307 306 304 303 302 301 300 300 300 299 299 299 298 298 298 298 298 298 298 298 298 298 297 297 297 297 297 297 297 298 298 298 297 297 297
314 313 313 313 313 315 315 313 311 313 320 325 325 321 320 322 324 321 317 319 326 326 322 323 326 325 325 324 323 323 324 323 324 323 320 318 318 319 317 315 314 314 313 312 311 311 311 310 309 309 308 306 305 304 302 301 300 299 299 299 299 299 299 298 298 298 298 298 298 298 298 298 298 297 297 297 297 297 297 297 297 298 297 297 297 297
315 314 313 313 313 314 314 314 312 313 319 322 322 321 321 322 320 319 320 322 325 325 323 324 325 325 325 324 323 323 323 322 321 321 319 319 318 316 315 314 313 313 312 311 310 310 310 310 309 308 307 305 304 302 301 300 300 299 299 299 299 299 299 298 298 298 298 298 298 298 298 298 298 298 297 297 297 297 297 297 297 297 297 297 297 297
316 315 314 314 314 314 315 315 314 315 318 321 321 320 321 321 320 320 322 322 322 324 324 324 325 325 324 323 323 322 321 320 320 320 319 317 316 314 314 314 313 312 311 310 310 310 309 309 309 307 306 304 303 301 300 300 300 299 299 300 299 299 299 299 299 299 299 299 298 298 298 298 298 298 298 297 297 297 297 297 297 297 298 298 298 298
317 315 314 313 314 315 314 314 316 318 320 321 322 321 322 321 319 320 323 323 322 323 323 323 324 324 323 323 323 321 320 319 319 319 317 316 314 313 314 314 312 311 310 310 309 309 309 308 308 306 305 303 302 301 300 300 300 300 300 300 299 299 299 299 299 299 299 299 299 298 298 298 298 298 298 298 298 297 297 297 297 297 298 298 297 297
319 318 318 317 317 316 316 317 319 320 320 321 321 320 320 319 317 318 321 322 322 322 322 322 323 323 322 323 322 320 319 319 318 317 316 315 314 313 312 312 311 310 310 310 309 308 308 308 307 305 304 303 302 301 301 300 300 300 300 300 299 299 299 299 299 299 299 299 299 298 298 298 298 298 298 298 298 298 298 298 298 297 298 298 297 297
319 318 319 321 319 318 318 320 320 319 320 320 318 317 317 318 317 317 320 321 321 321 321 322 322 322 322 322 320 319 319 318 317 316 316 314 313 312 312 312 311 310 310 309 308 308 307 307 306 305 304 303 302 301 301 300 300 300 300 300 299 299 299 299 299 299 299 299 299 298 298 298 298 298 298 298 298 298 298 298 298 298 298 298 297 297
319 317 318 320 319 317 318 321 321 320 320 319 318 317 316 316 316 317 319 320 321 320 321 321 322 322 321 320 319 319 318 317 316 316 315 313 312 311 312 312 311 310 310 309 308 307 307 307 306 305 304 303 302 301 301 300 300 300 300 300 299 299 299 299 300 299 299 299 299 299 298 298 298 298 298 298 298 298 298 298 298 298 298 298 298 297
319 317 318 320 319 318 319 321 320 319 318 317 317 318 318 317 316 316 317 318 319 319 320 320 320 320 319 319 318 318 317 317 316 315 314 313 311 311 312 312 310 310 309 308 307 307 307 306 306 304 303 303 302 302 301 300 300 300 300 299 299 299 299 299 300 300 299 299 299 299 299 298 298 298 298 298 298 298 298 298 298 298 298 297 298 298
317 317 318 319 319 319 319 319 319 318 318 317 317 317 318 317 317 317 316 317 317 318 318 318 318 318 318 317 317 317 317 316 315 314 313 312 311 311 312 311 310 310 309 308 307 307 307 306 305 304 304 303 302 302 301 300 300 301 300 299 299 299 299 300 300 300 300 300 299 299 299 298 298 298 299 298 298 298 298 298 298 298 298 297 296 296
316 317 318 318 317 318 319 319 319 319 320 320 318 317 317 316 316 317 317 316 317 317 317 317 316 316 317 317 317 316 316 315 314 314 313 311 311 312 311 311 310 309 308 308 307 307 306 306 305 304 303 302 302 301 301 301 301 301 300 299 299 300 300 300 300 300 300 300 300 299 299 299 299 299 299 299 298 299 298 297 296 297 298 297 295 293
317 319 319 317 318 318 318 318 319 319 320 320 318 317 317 316 316 317 317 317 317 316 316 316 316 315 315 316 316 316 315 314 314 314 312 311 312 312 311 310 309 308 308 307 307 306 306 305 304 303 303 302 302 302 301 301 301 300 300 299 300 300 300 300 300 300 300 300 300 300 300 300 300 299 299 299 299 299 298 297 296 295 295 295 295 294
Wind_Speed
11 9 12 13 14 17 17 17 12 3 3 9 12 11 9 10 8 7 9 8 9 11 10 10 11 11 9 8 7 9 12 12 12 10 7 8 10 9 9 9 7 7 8 11 14 13 12 11 11 11 11 12 13 14 14 13 13 12 12 12 11 10 9 9 9 8 8 9 8 7 8 10 9 8 8 8 8 7 6 6 6 6 6 6 5 6
11 11 14 16 16 17 18 17 12 6 4 6 9 9 8 8 8 8 8 8 6 7 7 9 12 10 7 8 6 8 11 10 11 11 9 11 11 8 10 10 8 6 6 10 11 12 15 14 11 11 11 11 13 13 13 13 13 13 12 12 11 11 10 10 10 10 10 9 8 8 9 9 8 8 8 8 7 7 7 7 7 7 7 7 7 7
11 12 16 18 15 15 16 15 12 8 7 5 7 8 8 7 9 8 7 10 6 5 8 11 11 9 7 8 7 6 9 8 9 10 11 12 11 9 9 9 10 10 10 10 10 10 11 9 6 9 11 12 13 13 13 13 13 13 12 12 12 12 12 11 11 11 11 11 10 10 9 8 8 8 8 8 7 7 7 8 8 8 7 7 7 7
11 12 16 16 14 14 15 14 13 10 8 7 7 8 8 9 10 8 8 10 7 5 10 12 9 6 6 7 7 5 7 9 7 8 10 11 10 10 11 10 11 13 13 12 11 10 11 7 3 7 10 11 13 14 14 13 13 13 12 12 12 12 12 11 11 11 12 12 11 10 10 9 9 8 8 8 8 7 8 8 8 8 8 7 7 8
12 11 14 14 14 15 15 14 14 10 8 8 9 8 8 12 11 8 11 11 8 7 11 13 7 4 4 5 6 5 7 10 9 9 9 10 10 11 11 11 10 11 13 14 12 10 13 10 5 7 9 10 13 14 14 13 13 13 13 13 13 13 12 11 10 10 11 11 11 10 10 9 9 8 7 7 7 7 7 8 8 8 7 7 7 8
11 9 13 16 16 16 15 14 15 12 8 8 9 6 5 12 11 12 16 13 9 8 11 12 7 5 6 7 7 5 7 10 10 11 11 11 12 12 11 11 10 10 12 14 13 11 14 13 10 10 9 8 11 13 13 15 15 14 14 13 13 13 12 11 10 9 10 10 9 8 7 7 7 7 7 7 6 6 6 6 6 7 7 7 7 7
8 11 13 16 17 17 15 13 15 15 9 7 10 5 4 11 13 15 17 13 9 8 11 12 9 5 7 9 9 8 8 11 11 11 12 11 11 11 11 10 10 10 10 13 13 12 13 13 13 12 10 9 11 14 16 18 18 17 16 15 13 13 12 11 10 9 9 9 8 7 6 5 5 6 7 6 6 5 5 5 5 6 7 8 8 8
9 14 15 16 17 16 14 12 15 17 10 5 12 11 7 10 13 15 15 11 8 8 10 11 9 6 7 9 11 10 9 11 12 12 12 11 10 10 11 10 10 10 11 13 12 13 13 14 14 13 13 12 12 16 17 18 17 17 16 15 14 13 12 11 10 9 8 8 8 7 7 7 6 6 6 6 5 5 4 5 5 5 6 8 10 10
10 14 15 17 16 12 12 12 14 17 10 6 12 13 9 9 11 12 11 8 7 8 9 11 10 8 7 9 11 12 11 12 13 14 13 13 12 11 10 10 10 9 10 13 13 13 15 16 16 15 15 14 15 17 18 17 16 16 17 16 15 14 12 12 11 10 9 8 7 6 6 7 6 6 5 4 3 3 4 4 5 5 6 7 8 10
9 13 14 15 13 10 12 12 14 17 10 7 12 11 8 7 8 9 8 6 8 8 9 12 13 10 7 9 11 11 12 13 13 13 13 13 13 11 11 11 10 9 10 12 13 14 16 17 17 17 16 15 18 19 19 19 18 17 17 16 16 14 13 12 11 11 11 10 9 7 6 6 6 5 4 3 3 3 4 4 5 5 6 7 7 10
9 12 11 12 11 10 12 11 14 18 11 9 11 10 8 7 6 5 5 5 7 9 10 14 15 12 8 8 11 11 12 14 13 12 14 14 14 13 12 12 11 10 10 12 13 15 17 17 17 17 15 14 17 20 19 19 17 16 16 14 15 14 12 12 11 11 11 11 12 10 9 7 6 5 4 4 4 4 4 5 6 6 7 8 8 10
12 12 10 9 9 9 12 11 13 15 11 10 11 10 9 7 6 5 5 5 7 8 10 14 15 13 10 7 11 12 12 14 15 15 17 18 16 14 13 12 12 11 12 12 13 15 17 18 17 18 16 14 15 17 16 15 14 13 13 14 15 13 12 11 10 11 11 12 12 12 11 10 8 6 6 5 5 5 6 6 7 7 8 9 9 11
11 11 10 9 8 11 13 11 10 11 11 11 11 10 9 8 7 8 7 7 8 5 5 12 14 12 8 3 10 15 13 13 15 16 17 19 17 15 14 13 12 12 13 13 13 14 16 18 19 19 18 17 15 15 15 14 13 13 13 13 14 13 11 11 11 11 12 12 12 11 11 10 9 9 8 8 8 7 7 7 8 8 9 9 10 11
10 10 12 12 9 12 14 11 10 10 12 13 11 11 10 8 8 9 8 8 8 4 5 9 10 9 7 3 5 12 13 12 14 14 16 18 17 15 15 13 12 13 13 13 13 13 14 17 18 18 18 18 17 16 15 14 13 12 12 13 14 13 11 11 11 12 12 12 12 12 12 10 11 11 10 10 10 9 9 9 9 9 10 10 11 12
11 8 12 13 9 13 16 12 11 11 12 13 11 10 10 8 7 8 7 8 9 6 7 9 8 6 7 4 2 3 6 8 12 13 13 13 14 14 14 13 13 13 13 12 13 12 14 16 17 17 16 16 17 16 15 13 13 12 12 12 14 13 12 12 12 12 12 13 13 13 12 12 11 11 11 11 10 10 10 10 10 10 10 11 12 11
12 7 12 14 8 14 17 13 13 12 10 11 10 10 10 8 6 4 1 2 5 7 7 8 5 2 2 3 2 1 4 8 11 14 16 13 14 14 13 13 13 13 13 13 12 13 16 18 16 16 16 16 16 16 14 13 12 12 12 13 14 14 13 13 12 12 12 12 13 13 13 13 12 11 11 11 11 11 10 10 11 11 11 11 11 11
10 7 15 15 8 14 17 12 13 12 8 8 10 10 7 5 4 4 3 4 3 6 7 7 6 3 3 4 5 5 7 11 12 15 18 17 17 16 14 14 14 13 13 12 12 13 17 18 15 14 15 15 15 15 14 13 12 13 13 14 14 14 12 12 12 12 12 12 13 14 13 13 13 12 12 11 11 11 11 11 11 11 12 11 10 10
7 7 14 15 11 14 16 12 13 14 8 7 10 10 6 1 2 4 5 4 5 7 5 7 9 8 7 6 7 9 11 14 15 16 18 17 19 18 15 15 15 14 14 13 14 15 17 18 16 15 14 14 15 14 14 13 13 13 13 14 14 13 11 11 11 11 11 12 12 13 13 13 12 12 12 12 12 12 12 12 12 12 12 11 11 11
6 6 10 14 13 13 13 12 13 13 9 6 8 11 8 5 6 6 6 6 9 8 5 8 10 9 9 7 9 12 15 16 17 17 18 19 19 17 16 16 17 16 14 14 14 14 16 18 17 17 16 15 15 15 14 14 14 14 14 14 14 12 10 10 10 10 11 11 11 12 12 12 12 12 12 12 13 13 14 14 13 13 12 11 11 11
7 4 8 12 13 13 12 10 11 11 8 7 8 10 9 7 6 7 7 5 6 8 6 7 8 8 8 8 11 15 16 18 18 18 18 19 18 16 15 17 17 16 15 15 14 14 16 18 18 17 17 16 16 15 15 15 15 15 15 14 13 11 10 10 10 11 11 11 12 12 12 12 12 13 13 13 13 14 14 13 13 13 12 12 12 12
7 4 6 10 11 11 10 9 11 12 12 9 8 10 10 6 2 5 7 6 6 7 6 6 6 6 5 5 11 16 16 18 19 19 18 17 18 16 15 17 17 15 15 15 14 14 17 19 18 18 17 17 17 16 16 15 15 15 14 13 12 10 11 11 10 11 11 12 12 12 13 13 13 13 14 14 14 14 13 13 13 12 12 12 12 12
7 5 7 9 8 9 10 12 14 13 13 13 9 9 11 8 5 6 8 8 7 6 5 5 6 4 3 1 5 12 14 15 18 18 16 16 17 16 16 17 17 16 16 16 15 16 18 20 19 18 18 17 17 16 16 15 15 14 12 12 11 10 11 11 10 11 11 12 12 12 13 13 13 13 13 14 14 13 13 13 13 12 12 12 12 12
3 4 8 8 9 9 8 10 14 12 13 14 11 10 10 9 9 9 8 8 8 7 4 4 4 2 4 3 2 6 11 13 14 15 15 14 15 15 16 16 16 17 17 16 17 18 20 20 19 19 19 18 17 17 16 15 14 13 11 11 11 11 11 11 11 11 11 12 12 12 12 13 13 13 13 13 13 13 13 13 12 12 12 12 12 12
1 4 7 7 8 8 5 6 8 9 10 13 11 11 11 10 11 10 7 5 7 9 7 4 5 3 3 1 2 5 10 13 12 14 15 13 12 14 17 17 16 16 17 16 16 18 20 20 20 20 19 18 18 17 16 15 14 13 12 12 12 12 11 11 11 11 12 12 13 13 13 13 12 12 12 12 13 12 12 12 12 12 12 12 12 12
4 6 7 7 8 9 7 7 9 10 10 9 9 12 12 12 13 9 4 3 5 9 10 8 6 3 3 1 5 8 11 13 13 12 13 13 13 14 16 16 16 16 17 16 14 15 18 20 20 20 19 18 18 18 16 15 14 14 13 13 13 12 12 12 12 12 13 13 13 13 13 13 12 12 12 12 12 12 12 12 11 11 11 12 12 12
5 6 7 8 9 9 9 9 8 10 10 8 10 14 15 15 15 10 6 6 6 8 9 9 6 4 4 3 8 12 13 14 14 13 12 14 14 15 15 15 15 15 16 16 15 16 17 18 19 19 18 18 19 18 16 15 14 15 15 14 13 13 13 13 13 13 13 13 13 13 12 12 12 12 11 11 11 11 11 11 10 10 11 11 12 12
4 5 8 8 6 7 9 7 7 9 11 11 12 14 15 15 15 11 8 8 8 6 8 9 7 5 7 8 11 14 14 15 16 16 15 15 15 15 15 14 14 14 13 14 15 16 16 17 19 19 18 18 19 17 16 15 15 15 15 14 13 13 13 13 13 13 13 13 12 12 12 11 11 10 10 10 10 10 10 10 10 10 11 11 11 12
4 6 9 8 2 1 1 4 8 11 13 14 14 15 15 16 16 14 11 9 8 7 7 8 9 7 8 12 14 15 16 16 17 18 17 16 16 16 16 16 15 14 13 13 15 17 17 16 18 19 19 18 19 17 15 15 15 15 15 14 14 13 13 13 13 13 13 12 12 12 11 10 10 10 9 9 9 9 10 10 10 10 10 10 11 12
6 6 8 8 2 4 5 6 5 9 11 13 15 16 16 17 18 17 15 12 9 8 6 7 10 11 9 14 17 18 18 17 17 17 16 16 16 17 17 17 15 14 15 16 16 17 17 16 18 19 19 18 19 18 16 15 15 15 15 14 14 13 13 13 13 13 12 12 12 11 11 10 9 9 9 9 10 10 10 10 10 10 10 10 11 11
6 5 7 9 6 3 3 4 3 5 7 10 14 16 16 18 19 17 16 16 14 10 7 5 9 10 6 9 15 15 13 14 14 14 16 17 18 19 18 17 16 17 18 18 17 17 17 17 19 19 19 19 19 18 17 16 16 16 15 15 14 14 13 13 13 13 12 12 11 11 11 10 10 9 9 9 10 10 10 10 10 10 11 11 11 11
6 4 7 8 7 5 4 2 1 3 4 8 11 12 14 15 17 17 16 15 13 11 8 7 9 8 1 4 11 13 12 13 15 17 18 18 19 21 20 19 20 19 18 17 17 18 17 17 19 20 20 20 20 19 17 17 16 16 15 15 14 14 13 13 13 13 12 12 12 11 11 10 10 10 10 10 10 10 10 10 10 10 11 11 11 11
6 3 5 7 7 6 6 4 4 3 3 7 9 10 11 12 13 13 12 11 12 12 11 10 10 7 5 8 12 14 14 15 17 19 19 18 20 22 22 21 21 19 17 17 18 18 17 17 19 20 21 21 21 19 18 18 17 16 16 15 14 14 13 13 13 13 12 12 12 11 11 10 10 11 10 10 10 10 10 11 11 11 11 11 11 11
9 6 5 7 7 6 7 5 4 4 6 8 6 5 9 11 11 9 8 9 13 13 10 10 10 7 9 13 14 15 16 17 18 19 19 19 22 22 21 21 20 18 18 18 18 18 17 18 20 21 22 21 21 19 19 18 17 16 16 15 14 14 14 14 14 13 13 12 12 11 11 11 11 11 11 11 10 10 11 12 12 12 11 11 11 11
11 9 5 7 7 6 7 5 4 7 7 4 1 2 1 6 10 12 10 11 14 12 6 4 5 7 13 15 16 17 18 18 17 17 18 19 20 21 20 20 19 18 18 18 18 18 19 20 21 22 22 22 21 20 19 18 17 16 16 15 15 15 15 15 14 14 13 13 12 12 11 11 12 12 11 11 11 11 12 12 12 11 11 11 11 11
11 9 6 5 6 6 6 5 7 9 4 2 3 2 3 1 4 8 7 8 12 12 7 4 4 9 12 13 14 15 15 14 14 16 18 19 19 19 19 20 20 19 18 18 17 18 21 22 22 22 22 22 21 20 19 18 18 17 16 16 16 16 16 16 15 14 14 14 13 12 12 12 12 12 12 12 12 12 12 12 11 10 10 10 11 11
10 8 5 5 5 4 5 7 8 3 2 3 2 2 2 1 3 5 4 8 13 13 11 10 7 8 9 9 10 10 11 12 12 13 16 18 19 20 19 19 20 20 19 20 21 22 24 24 24 24 24 23 22 21 19 19 18 18 17 17 17 17 17 16 16 15 15 14 14 13 13 13 13 13 12 12 12 12 12 11 10 10 10 10 11 11
10 9 6 5 5 4 5 8 5 0 2 4 3 4 6 4 6 7 6 8 13 13 12 11 8 9 10 10 10 11 12 12 9 10 15 18 19 21 20 19 21 22 23 25 26 26 26 25 25 25 25 23 22 21 20 20 19 18 18 18 17 17 17 17 17 16 16 15 14 14 13 13 13 13 13 12 12 12 11 10 10 10 10 10 10 10
8 8 8 7 5 5 7 8 6 5 6 6 4 7 7 3 3 6 4 4 10 13 13 12 11 12 12 12 14 14 12 10 8 9 15 19 20 21 21 21 24 25 26 27 27 25 25 25 25 25 25 24 22 21 21 21 20 19 19 18 18 18 18 18 17 17 17 16 15 14 13 13 13 13 13 12 12 11 10 10 10 10 9 10 10 10
6 6 7 7 6 6 8 8 8 7 6 3 5 8 8 4 3 5 5 5 9 14 15 13 13 14 14 15 16 14 11 9 8 9 15 20 22 22 21 20 23 25 27 28 29 28 26 26 26 25 25 24 23 22 22 22 21 20 20 20 20 19 19 18 18 18 17 16 15 14 13 13 13 13 13 12 12 11 10 10 9 9 9 9 9 9
8 6 6 8 7 7 8 8 7 6 2 4 6 8 8 6 4 5 7 4 8 13 15 14 15 15 16 16 15 13 10 7 4 7 17 21 21 23 21 20 23 26 28 29 29 29 28 27 27 27 26 25 24 23 23 22 22 21 21 21 20 20 19 19 19 18 18 17 15 14 13 13 13 13 12 12 11 10 10 9 9 9 8 8 9 9
8 7 7 8 7 8 9 8 7 4 3 5 7 9 9 6 5 7 5 1 4 10 12 12 14 15 16 16 13 10 7 1 3 11 21 22 22 23 23 24 26 28 29 29 29 28 28 27 27 27 26 25 25 25 24 23 22 22 22 21 20 20 20 19 19 19 18 16 15 15 14 13 13 13 12 11 11 10 9 9 9 9 9 9 8 8
8 7 7 8 8 8 7 7 8 5 3 6 8 8 6 5 5 4 1 3 2 7 10 9 11 13 15 14 11 5 3 4 8 16 22 22 21 21 23 26 29 29 30 32 32 30 29 28 28 27 26 26 26 25 24 24 24 23 22 21 21 21 20 20 20 19 17 17 16 15 14 14 13 12 11 10 10 10 9 9 8 8 8 8 8 8
7 8 8 7 7 6 6 7 8 5 4 10 12 7 4 4 1 1 1 2 1 6 9 8 9 11 12 13 10 5 6 8 13 18 19 20 21 21 23 26 28 28 30 31 32 31 30 28 28 28 27 27 27 26 25 25 25 23 22 22 22 22 21 20 19 18 17 17 16 15 15 14 12 11 11 10 10 10 9 9 8 7 7 7 7 7
5 6 6 6 6 6 6 7 4 1 6 12 10 3 2 1 3 4 1 2 2 5 7 7 8 10 12 12 10 8 9 11 14 17 18 19 19 20 22 25 27 28 30 31 31 31 30 29 29 28 28 27 27 26 26 26 25 24 23 23 23 22 21 20 19 18 17 16 16 15 15 14 12 11 10 10 9 9 9 8 7 6 6 5 6 7
1 0 2 2 5 4 3 1 2 3 6 9 4 4 3 2 3 5 3 2 1 3 5 5 8 10 11 11 11 10 10 12 15 17 18 18 19 19 22 25 27 29 31 32 32 32 30 29 29 29 28 28 27 26 26 26 25 25 24 24 23 23 22 20 19 18 17 16 16 15 14 13 12 11 10 9 8 8 7 6 6 6 6 5 6 6
2 2 3 2 1 1 1 2 3 2 5 7 4 4 3 1 1 3 3 2 1 2 4 5 6 10 11 11 11 10 10 13 15 16 17 18 19 20 23 25 27 30 32 32 32 32 31 30 30 30 29 28 27 26 26 25 26 25 24 24 24 23 21 20 19 18 17 16 15 14 14 13 11 10 9 8 7 7 6 5 5 5 5 6 6 6
2 2 3 2 1 2 2 3 3 2 3 5 6 4 2 1 0 1 2 2 1 1 4 4 5 9 11 11 11 11 12 14 16 15 15 17 18 20 22 24 27 30 32 33 33 33 31 30 30 30 30 29 28 26 26 26 26 25 24 25 24 23 21 20 19 18 17 16 15 14 13 12 11 10 9 7 6 6 5 4 4 4 4 5 5 5
3 3 4 3 3 3 1 2 2 1 2 4 6 5 3 3 3 1 1 1 1 2 4 4 5 9 10 10 11 12 13 15 16 15 15 15 16 18 21 25 29 31 32 33 35 34 31 30 31 31 30 29 28 26 26 26 26 25 25 25 24 23 21 20 18 17 16 16 15 13 12 11 10 10 9 7 6 6 5 4 3 4 5 5 4 4
3 3 2 2 3 4 3 2 3 3 4 6 8 7 5 3 3 2 2 1 2 4 5 5 6 8 9 10 11 12 13 14 15 16 16 15 15 17 21 26 30 31 32 35 36 34 31 31 32 32 30 28 27 26 27 27 26 26 26 25 24 22 21 20 18 17 16 15 14 13 12 11 10 9 8 7 7 5 4 4 3 3 4 4 3 3
3 4 2 2 5 5 2 1 1 3 2 4 6 8 8 5 4 4 4 4 5 6 6 7 7 7 9 10 11 12 13 13 14 16 15 14 16 20 24 28 30 30 31 33 33 32 30 31 32 31 29 28 27 27 27 26 25 25 26 24 23 22 21 19 18 16 15 14 13 12 12 11 10 9 8 7 7 6 5 5 4 4 4 3 2 3
3 2 1 3 4 0 4 4 2 3 1 4 3 4 7 7 6 6 6 6 6 6 7 8 9 9 9 10 12 13 13 13 15 16 14 14 18 22 24 24 25 28 31 32 31 31 29 29 30 30 28 27 26 25 25 25 24 25 26 24 23 22 21 19 18 16 15 14 13 12 12 11 10 9 8 8 7 7 6 7 6 5 4 3 2 2
Wind_Direction
188 190 198 202 198 194 194 200 198 170 196 186 183 197 196 186 167 125 129 152 193 194 184 176 143 129 135 122 124 143 128 108 117 139 153 132 119 106 94 83 59 43 43 45 40 35 45 65 77 82 99 114 114 114 119 122 123 124 125 125 121 118 117 114 114 111 107 104 103 100 89 80 76 73 71 66 64 63 60 57 52 45 39 30 27 22
192 204 204 201 200 193 193 200 194 167 172 190 190 191 196 188 146 124 139 153 196 203 178 158 132 118 104 104 116 147 143 125 136 161 157 134 126 119 111 108 110 104 89 73 61 51 50 57 73 87 97 106 109 112 115 119 120 120 119 116 113 113 109 104 106 104 98 95 95 92 85 81 80 75 72 72 69 67 64 61 57 53 46 38 33 27
198 212 205 199 201 193 187 192 189 180 184 196 201 195 195 169 129 121 139 154 183 202 166 142 121 106 89 92 92 133 156 138 143 169 161 143 138 135 128 127 131 128 116 97 89 85 72 70 88 99 102 103 107 109 110 112 112 112 113 111 109 107 103 101 101 99 94 89 88 88 90 94 94 85 81 83 79 73 68 63 60 57 48 41 37 33
195 209 201 192 190 182 176 182 188 190 199 203 200 202 189 157 152 155 148 154 169 178 155 134 113 110 98 95 87 98 140 134 138 157 154 153 154 146 143 144 140 130 123 110 102 98 91 90 82 91 101 102 105 105 104 106 103 101 103 103 103 100 99 100 98 96 92 89 89 91 97 101 100 96 91 88 81 74 69 62 58 52 45 42 39 33
199 200 185 176 176 178 177 182 191 193 197 199 204 214 182 166 182 169 145 151 152 151 149 137 125 139 145 134 114 106 138 143 146 144 144 158 160 149 144 145 143 138 130 119 117 119 118 124 112 90 93 95 103 103 101 102 97 94 95 96 98 95 94 95 94 95 96 99 102 106 112 109 106 102 92 83 76 70 66 60 57 54 49 45 43 41
200 175 166 175 182 188 187 186 193 194 189 189 204 231 171 165 171 146 146 156 153 159 166 167 175 169 177 182 155 143 153 154 155 153 152 156 155 152 150 146 145 147 135 125 131 136 127 125 118 105 97 91 99 98 98 102 101 97 96 97 98 94 93 92 90 92 95 103 109 112 116 110 106 98 82 78 77 74 71 66 69 72 65 52 48 50
182 161 176 187 186 189 192 192 193 194 197 187 182 184 136 156 159 155 163 173 179 179 178 196 213 174 176 196 180 168 164 162 165 162 159 160 158 158 158 151 150 153 135 125 131 130 122 118 110 102 87 74 83 92 97 101 102 101 98 94 93 91 91 91 94 95 92 93 90 86 83 74 82 89 86 85 86 86 82 74 69 65 59 55 52 51
160 165 183 187 185 190 195 195 189 194 207 168 158 164 153 158 165 171 181 194 198 174 171 204 224 195 186 191 177 170 170 172 174 166 162 170 168 159 159 155 155 158 139 127 126 123 119 114 108 103 95 90 96 103 103 100 100 102 101 97 91 88 88 89 93 95 93 91 85 81 80 76 81 93 97 93 87 86 84 71 60 48 42 45 45 42
158 173 180 182 188 193 196 192 179 191 206 129 145 169 169 167 172 182 195 203 190 172 180 200 211 214 197 170 168 175 184 187 182 174 172 176 173 162 161 157 155 156 137 126 126 127 127 124 123 122 118 118 119 116 113 108 102 101 104 104 96 89 87 90 91 88 88 90 87 84 89 92 94 96 97 93 86 80 74 62 53 48 42 40 40 38
168 183 180 184 193 193 195 188 173 190 199 124 147 172 168 170 174 186 206 197 183 198 205 192 198 219 201 164 175 186 196 198 188 182 178 176 175 169 165 158 153 150 133 125 129 133 133 130 128 125 122 125 124 121 118 114 110 106 104 102 95 90 86 87 86 84 84 85 86 88 92 99 100 98 94 88 81 69 66 62 55 55 49 46 44 37
157 175 182 191 204 196 185 176 173 190 187 138 157 172 164 173 172 184 209 189 190 215 212 191 197 219 213 179 185 195 201 196 186 183 179 175 177 175 170 165 161 152 134 128 133 135 132 130 129 123 122 125 122 121 118 114 111 106 102 97 93 90 87 85 81 81 82 81 84 87 91 95 93 92 92 87 81 71 71 70 66 67 61 54 49 40
154 171 182 190 205 190 170 166 174 186 181 163 177 180 171 176 172 183 189 185 210 224 206 188 194 218 228 199 188 197 199 190 185 185 182 179 177 176 174 169 168 160 144 139 141 140 137 139 139 132 129 128 122 119 116 113 112 108 105 102 97 92 89 87 84 84 83 81 82 84 86 88 87 87 89 88 84 78 78 77 77 75 66 58 51 46
167 176 172 173 194 191 175 167 170 181 186 189 190 183 183 180 179 195 190 192 215 212 178 181 188 214 231 190 183 193 193 190 189 186 182 180 177 175 173 167 167 164 152 149 149 146 146 148 147 141 136 133 128 123 119 117 116 113 110 106 100 95 92 90 86 84 83 81 81 81 80 81 83 85 86 87 84 81 80 78 80 76 69 63 55 51
166 172 174 176 186 196 194 182 174 181 188 195 193 187 193 186 183 199 192 194 205 155 134 180 188 208 210 149 166 189 187 188 188 181 177 178 177 174 170 164 162 161 155 153 154 151 152 152 148 143 139 135 132 128 124 121 119 115 112 108 102 97 93 90 87 82 79 78 78 79 81 80 83 84 84 85 82 80 80 78 78 77 74 69 61 56
169 172 182 184 176 185 200 199 181 178 185 196 198 196 205 200 190 202 198 199 198 157 143 172 184 208 198 138 83 174 169 178 184 169 157 165 171 169 165 161 159 159 158 158 156 152 153 152 147 143 139 134 131 128 127 123 120 116 111 108 104 100 96 91 87 82 77 77 78 79 82 83 83 84 83 82 80 79 78 78 79 79 78 73 67 61
180 170 168 180 179 176 193 204 186 179 186 194 201 205 212 215 201 189 194 186 174 158 155 174 187 199 158 122 107 157 154 172 177 156 147 159 169 167 164 164 164 164 163 164 159 154 155 153 148 143 137 133 130 129 128 125 122 120 114 109 104 98 95 89 84 82 80 81 81 82 83 83 83 82 79 78 78 78 78 78 79 79 79 77 72 66
184 155 154 168 180 181 190 198 189 191 186 178 201 207 199 216 208 161 111 68 126 180 173 177 186 149 146 166 160 169 173 175 176 163 159 168 172 171 169 167 170 169 166 165 161 157 155 152 147 141 134 132 133 131 129 126 123 121 114 109 103 96 91 86 84 86 86 86 85 83 83 82 80 79 78 77 77 78 80 80 81 83 82 79 74 68
177 140 154 169 175 184 192 189 194 210 207 179 195 191 158 169 242 198 180 148 182 210 181 178 195 180 182 182 153 168 181 180 184 178 170 170 174 178 177 172 170 167 165 164 161 158 155 152 148 143 136 132 132 131 129 127 123 117 109 104 100 93 88 88 90 91 91 91 87 84 82 80 79 79 79 80 81 82 84 84 86 89 86 80 73 69
190 140 157 180 175 174 186 189 197 210 220 225 205 184 173 196 208 206 205 183 195 212 194 189 202 197 199 187 163 179 187 183 185 183 176 174 179 182 178 173 170 166 165 164 161 159 156 154 150 146 143 138 135 134 131 128 120 110 102 99 96 91 93 96 96 96 94 93 90 86 84 81 80 81 83 84 85 86 88 89 91 90 85 79 73 68
201 164 157 183 177 166 179 198 201 190 191 231 222 190 195 217 212 205 208 201 200 208 201 190 195 206 211 189 175 186 188 183 181 183 183 181 181 182 175 171 169 167 167 164 162 160 156 153 149 147 146 142 139 137 132 125 115 106 103 100 96 96 101 101 99 98 95 91 90 88 85 83 82 83 85 87 88 89 88 88 89 86 81 78 72 68
191 197 159 173 174 172 184 200 204 189 181 202 210 192 194 206 219 211 206 209 220 216 203 195 202 205 197 178 186 190 186 183 182 183 185 183 182 180 173 170 168 165 166 163 161 159 153 151 149 146 145 142 141 138 129 121 112 108 109 105 102 104 106 104 101 99 95 92 91 88 85 85 85 84 85 86 86 87 86 84 84 82 79 77 71 68
192 199 163 163 174 188 194 195 203 202 190 193 201 198 197 196 197 204 199 199 220 233 215 210 216 185 117 54 205 190 183 183 182 180 182 180 179 177 172 171 167 163 164 161 158 157 153 152 151 149 148 145 143 136 125 117 111 110 111 107 107 110 109 106 103 101 98 96 94 90 89 89 88 87 86 86 85 84 83 81 79 79 78 74 70 66
203 201 171 169 183 192 184 188 207 214 202 199 205 207 203 199 200 206 202 190 204 224 224 224 224 154 76 12 265 189 178 176 178 180 181 177 175 175 171 166 162 161 162 160 158 157 154 152 151 151 151 148 142 131 121 116 113 113 113 110 111 114 111 109 107 104 102 100 97 96 96 93 91 90 87 85 84 82 81 79 77 76 74 72 68 64
173 201 176 165 178 186 166 174 208 224 213 205 207 209 208 202 203 215 226 200 198 208 203 213 222 163 88 21 234 189 170 167 176 182 179 174 169 171 168 162 159 159 159 160 157 152 151 151 152 153 153 149 138 126 120 119 118 117 115 113 115 117 115 112 110 108 105 104 102 100 99 96 94 91 89 86 85 83 81 79 77 74 72 70 67 62
180 198 183 168 173 184 185 188 199 209 213 212 208 208 210 206 200 206 222 199 206 211 204 216 223 164 97 141 192 185 172 167 176 178 173 171 167 167 166 160 158 159 159 158 150 146 151 154 156 158 155 146 134 126 125 124 123 120 115 114 118 119 117 114 112 110 109 108 106 103 101 99 96 93 91 89 86 85 83 80 78 75 72 70 66 62
183 199 192 186 184 188 197 200 194 193 200 212 213 208 210 209 201 196 201 210 222 217 206 219 223 130 109 171 179 178 176 171 172 172 170 171 166 164 163 159 159 161 158 153 151 154 158 158 160 160 153 141 132 129 130 128 125 120 116 117 120 120 119 117 114 112 111 110 109 107 105 101 99 97 94 92 89 86 84 81 80 77 74 70 67 64
189 202 204 214 215 206 208 198 176 179 189 201 208 208 209 209 206 204 210 219 222 216 212 221 217 153 143 172 177 174 177 176 174 174 174 171 165 161 160 158 159 160 152 147 155 161 160 161 162 157 146 136 132 131 132 131 127 122 120 122 122 122 120 119 117 115 111 111 110 108 107 104 101 100 96 94 92 89 87 85 82 80 76 72 68 65
195 195 203 224 261 43 147 134 153 184 196 198 200 204 205 206 209 210 215 221 213 211 216 201 199 200 173 171 180 179 179 183 182 180 178 171 164 161 161 160 158 155 150 151 159 162 161 162 160 150 141 135 132 133 134 132 128 125 125 127 125 124 124 122 121 117 112 112 110 110 109 106 102 101 97 95 94 92 91 87 84 82 78 74 70 65
207 195 193 209 194 58 55 81 138 194 206 206 205 205 204 205 208 210 214 219 213 218 225 175 183 214 199 176 185 186 182 184 182 181 178 168 162 161 160 159 155 152 156 160 163 164 164 163 156 146 142 140 137 137 137 133 131 130 130 130 129 129 129 128 126 121 116 114 112 112 112 108 105 101 98 97 96 94 93 89 85 83 80 76 72 67
220 186 172 202 205 143 87 79 125 191 202 213 215 211 208 206 208 209 213 217 215 222 236 197 190 214 210 178 184 180 175 175 173 176 177 170 167 165 161 158 158 161 166 167 165 166 167 162 153 147 148 147 144 144 143 140 138 138 135 134 134 133 132 133 130 125 121 117 114 116 115 110 108 104 100 98 96 94 94 91 89 85 81 78 73 69
216 166 154 198 211 178 152 122 182 198 199 214 218 217 215 210 208 209 211 213 213 216 222 222 216 213 159 134 159 158 160 168 172 180 181 174 173 172 167 165 167 169 169 166 167 169 167 158 149 148 152 153 151 150 149 146 144 141 139 138 138 137 137 136 133 129 125 121 119 119 116 111 108 104 100 98 96 95 94 92 91 88 84 81 75 72
203 187 162 199 219 193 174 186 211 227 247 234 223 213 212 213 210 208 203 198 205 210 206 210 225 218 150 136 150 157 165 171 176 182 183 178 179 177 171 168 170 170 166 165 169 169 163 155 149 151 155 156 155 155 152 149 146 144 143 143 141 141 140 138 135 132 128 125 123 120 116 112 109 104 101 99 97 96 95 93 92 89 86 83 78 75
194 198 183 196 215 196 172 183 207 226 241 237 226 213 209 210 205 196 190 193 205 213 206 207 226 214 154 149 157 164 172 177 182 186 185 183 184 181 172 166 167 167 165 165 166 163 159 156 154 155 158 159 158 157 153 150 149 147 145 144 143 144 142 139 137 134 130 127 124 120 116 112 109 105 102 100 97 97 96 95 93 90 87 85 82 79
188 201 199 191 211 199 164 159 207 227 231 220 103 2 272 206 197 195 196 199 204 210 211 218 217 167 151 161 171 173 179 184 184 184 185 186 185 181 173 165 165 166 166 166 163 160 158 157 156 158 159 160 160 157 152 149 147 145 144 145 145 146 144 141 138 135 132 128 124 120 117 113 109 105 102 100 99 99 97 95 93 91 89 87 84 80
182 199 200 187 212 202 159 169 215 227 226 107 79 25 14 10 210 208 210 203 201 204 204 205 183 159 161 174 177 174 178 177 174 179 187 190 188 181 172 166 166 167 167 166 162 159 158 157 156 159 162 163 160 154 150 147 144 143 144 147 147 146 144 142 138 135 132 128 125 122 118 114 110 106 104 102 101 99 97 96 94 92 90 88 84 80
182 192 192 191 205 190 173 202 219 227 107 111 114 147 142 118 176 190 219 213 203 204 204 202 190 167 166 165 159 160 161 160 166 181 188 190 190 183 172 167 167 167 166 166 163 159 159 158 156 159 164 162 156 152 149 147 145 145 147 148 147 146 144 142 138 135 133 129 126 123 119 116 112 109 107 105 103 100 98 97 95 93 91 90 86 84
191 190 185 194 204 206 215 212 208 297 175 183 186 180 181 181 173 185 225 217 196 196 201 198 180 158 156 148 142 144 144 150 169 188 190 192 192 185 176 167 167 168 168 166 162 158 158 156 154 155 157 156 153 152 150 148 148 148 148 148 148 146 144 141 138 136 134 131 128 124 121 119 115 112 110 107 104 102 99 98 97 94 93 92 90 88
206 205 197 196 198 214 234 223 209 228 231 210 173 161 168 178 179 192 240 220 182 182 191 192 176 159 154 148 145 143 142 157 187 196 188 189 190 187 180 170 168 170 166 160 155 151 151 152 152 152 152 152 153 152 149 149 150 150 149 149 148 146 144 142 139 138 136 132 129 125 123 121 117 115 112 108 106 104 102 100 98 95 94 94 92 90
216 222 212 207 197 199 226 234 222 227 233 188 136 139 155 171 168 184 226 218 176 174 183 184 172 162 159 154 153 152 157 182 210 198 180 181 184 184 179 169 166 166 161 155 150 148 150 152 152 151 152 153 152 152 150 151 152 151 150 150 148 146 145 142 141 139 137 133 131 128 124 121 118 115 113 110 108 106 104 101 98 98 97 94 91 89
207 215 216 219 209 198 214 233 233 227 191 117 119 130 150 163 170 197 218 205 163 169 178 179 171 168 165 159 159 168 179 202 236 173 164 171 179 179 173 164 160 160 157 152 149 149 151 152 153 154 156 155 153 153 153 153 153 152 151 150 149 147 145 143 141 139 137 134 132 129 125 121 118 115 114 112 110 107 105 102 100 99 95 91 89 87
194 200 211 220 217 204 208 227 236 219 114 107 131 139 142 156 198 220 219 137 137 167 176 177 173 169 166 165 170 184 189 195 64 137 153 166 175 173 165 158 156 156 152 147 146 149 152 155 157 158 157 155 153 154 155 155 154 152 151 151 150 147 145 143 141 139 138 137 133 129 126 123 119 116 114 113 111 109 106 104 101 98 94 90 89 88
184 187 202 216 221 214 211 226 235 221 123 121 136 136 149 182 208 219 179 43 107 164 166 175 175 169 169 173 177 175 128 101 124 144 155 164 167 164 158 155 156 155 150 146 148 153 156 158 159 158 156 155 155 156 157 156 153 152 152 151 149 147 145 144 142 141 140 138 135 132 128 124 121 119 116 115 114 111 109 105 101 100 98 95 93 90
178 183 195 201 208 217 212 216 232 235 156 149 144 141 198 218 231 12 64 50 81 161 161 171 175 171 173 175 172 151 120 128 141 148 153 159 159 157 158 159 158 154 149 149 153 157 158 158 158 157 156 156 157 158 158 156 154 153 153 152 149 148 147 146 145 144 142 139 136 133 131 128 125 122 120 120 119 114 110 107 103 103 106 104 99 92
178 195 208 192 188 214 219 208 223 11 143 160 156 144 192 160 17 347 345 73 95 163 167 173 175 175 179 177 170 156 142 145 149 151 154 158 158 156 158 159 155 149 149 152 156 158 158 157 157 156 155 157 158 158 158 157 155 154 154 152 150 150 149 148 147 144 142 141 139 136 135 133 130 127 126 124 121 115 111 110 108 107 108 105 96 87
115 21 292 226 187 220 253 179 68 61 144 163 137 45 70 92 18 342 343 34 95 165 177 182 175 176 182 179 168 160 156 155 155 155 158 161 159 156 157 157 152 148 151 154 157 158 159 158 156 155 156 158 159 159 159 159 157 155 155 153 152 153 152 150 149 147 145 145 144 142 141 139 136 135 134 130 124 119 116 117 115 107 102 97 88 79
60 47 308 293 172 211 270 127 98 99 160 167 138 67 55 48 15 351 341 355 41 160 187 192 179 177 181 178 170 168 164 158 156 157 161 161 159 157 158 156 152 152 154 156 157 159 160 159 157 156 157 159 160 160 160 160 158 157 156 155 155 155 153 152 151 150 149 148 147 146 145 143 143 141 140 138 133 128 125 123 117 107 96 91 85 76
125 181 251 281 172 199 207 142 114 107 160 179 179 151 110 128 123 344 324 333 3 203 196 193 180 175 175 176 175 170 163 160 159 159 161 161 160 159 159 156 154 156 158 158 159 161 161 159 158 158 158 160 161 161 160 160 160 158 156 157 158 156 155 155 155 154 153 151 150 150 149 148 148 146 145 147 147 140 136 132 119 105 93 86 83 79
137 194 230 235 208 214 227 78 93 123 168 192 197 186 165 158 155 164 305 322 329 197 184 179 175 171 171 177 177 168 163 164 163 161 163 165 163 163 162 159 157 158 159 159 161 163 163 161 160 160 159 160 162 161 161 162 162 160 159 159 160 158 157 159 159 158 157 154 153 155 155 153 156 157 155 158 162 156 148 142 128 105 89 77 66 68
124 193 212 211 217 233 242 188 184 205 198 190 196 197 182 149 143 159 177 184 183 176 170 172 178 177 175 176 174 168 166 167 165 164 166 166 166 166 164 160 159 159 159 160 162 164 164 162 161 159 159 160 160 161 163 166 166 164 163 162 161 161 161 163 164 163 160 159 159 161 160 160 165 169 166 164 169 168 154 146 143 120 101 87 73 80
195 214 181 204 235 243 235 140 182 250 224 154 173 194 188 167 166 179 178 183 185 177 171 170 172 177 179 176 173 172 169 168 168 167 167 167 168 168 165 161 159 157 156 157 160 163 162 159 157 156 155 159 162 164 167 169 168 165 164 165 165 165 166 166 168 168 166 166 167 167 168 170 173 177 177 174 174 174 165 161 161 146 132 130 118 101
232 254 195 243 257 301 50 40 354 279 315 67 94 181 183 175 186 192 188 189 183 175 174 170 166 170 176 176 178 179 173 166 166 167 166 167 167 165 162 160 159 157 156 156 157 157 154 150 150 150 151 157 162 165 167 169 168 167 168 169 170 170 170 170 172 172 173 175 174 173 177 180 179 182 187 186 184 184 179 175 173 164 161 169 175 160